Regional Weather Roundup
Issued by NWS

Home | Current Version | Previous Version | Text Only | Print | Product List | Glossary Off
Versions: 1 2 3 4 5 6 7 8 9 10 11 12 13 14 15 16 17 18 19 20 21 22 23 24 25 26 27 28 29 30 31 32 33 34 35 36 37 38 39 40 41 42 43 44 45 46 47 48 49 50

925
ASUS44 KLIX 230405
RWRLA
LOUISIANA WEATHER ROUNDUP
NATIONAL WEATHER SERVICE NEW ORLEANS LA
1100 PM CDT WED OCT 22 2014

NOTE: "FAIR" INDICATES FEW OR NO CLOUDS BELOW 12,000 FEET WITH NO
      SIGNIFICANT WEATHER AND/OR OBSTRUCTIONS TO VISIBILITY.
      SKY/WX - SKY CONDITION AND SIGNIFICANT WEATHER.
      TMP - AIR TEMPERATURE.    DP   - DEWPOINT TEMPERATURE.
      RH  - RELATIVE HUMIDITY.  PRES - PRESSURE.
      HX  - HEAT INDEX.         WCI  - WIND CHILL INDEX.

*  THESE STATIONS ARE NOT NWS OR FAA STATIONS AND ARE NOT UNDER
   NWS QUALITY CONTROL.

LAZ040-048-061>063-065-066-069-230500-
SOUTHEAST LOUISIANA

CITY           SKY/WX    TMP DP  RH WIND       PRES   REMARKS
N.O. AUDUBON   NOT AVBL
N.O. INTL ARPT CLEAR     70  53  54 NE12      30.08R
N.O. LAKEFRONT LGT RAIN  71  55  56 NE18      30.08S
N.O. DOWNTOWN* FAIR      70  50  49 NE7       30.09S
SLIDELL        CLEAR     55  51  86 N5        30.09R
BATON ROUGE    CLEAR     60  52  74 N6        30.10R
BOOTHVILLE     CLEAR     71  62  73 N5        30.06S
BELLE CHASSE   CLEAR     63  53  70 NE6       30.07S
BOGALUSA*        N/A     53  49  86 N5        30.12R
NEW ROADS*     FAIR      59  53  79 NE6       30.10S
GONZALES*      FAIR      63  54  71 CALM      30.09R
HAMMOND*       CLEAR     57  50  77 N3        30.12R
HOUMA*         CLEAR     58  56  92 CALM      30.07S
PORT FOURCHON* CLEAR     72  61  68 NE7       30.09S

$$

LAZ041-044-053-054-230500-
SOUTHWEST LOUISIANA

CITY           SKY/WX    TMP DP  RH WIND       PRES   REMARKS
LAKE CHARLES   CLEAR     64  53  67 NE8       30.10R
LAFAYETTE      CLEAR     61  54  77 N7        30.09S
PATTERSON      CLEAR     59  57  94 CALM      30.10S
SALT POINT       N/A     65  59  81 CALM      30.07R
NEW IBERIA     CLEAR     62  56  80 N8        30.09R
CHENAULT AIRPK CLEAR     62  54  74 N6        30.11R

$$

LAZ027-028-230500-
CENTRAL LOUISIANA

CITY           SKY/WX    TMP DP  RH WIND       PRES   REMARKS
FORT POLK      CLEAR     62  53  74 N7        30.13R
ALEXANDRIA INT CLEAR     59  53  80 N7        30.12R
ALEXANDRIA     CLEAR     51  50  96 CALM      30.13R

$$

LAZ001-002-230500-
NORTHWEST LOUISIANA

CITY           SKY/WX    TMP DP  RH WIND       PRES   REMARKS
SHREVEPORT     CLEAR     62  53  72 E7        30.14F
BARKSDALE AFB  CLEAR     59  52  79 NE3       30.15F
DTN SHREVEPORT CLEAR     57  53  86 CALM      30.15F

$$

LAZ014-016-230500-
NORTHEAST LOUISIANA

CITY           SKY/WX    TMP DP  RH WIND       PRES   REMARKS
MONROE         CLEAR     55  50  83 N5        30.17R
TALLULAH       CLEAR     54  47  77 NE7       30.15R

$$




USA.gov is the U.S. government's official web portal to all federal, state and local government web resources and services.